Location: Caltech
(34.1382°N, 118.1253°W)
Time: 00:57:28
(UTC-07:00)

PCSat - Visible Passes

Search period start: 24 May 2017 00:00
Search period end: 03 June 2017 00:00
Orbit: 784 x 796 km, 67.0° (Epoch: 23 May)

Date Brightness Start Highest point End Pass type
(mag) Time Alt. Az. Time Alt. Az. Time Alt. Az.
24 May 11.3 04:58:05 10° N 05:03:08 38° ENE 05:08:07 10° SE visible
24 May 12.9 21:21:49 10° W 21:24:46 15° NW 21:27:43 10° NNW visible
25 May 11.9 04:27:31 10° N 04:32:07 27° NE 04:36:42 10° ESE visible
25 May 12.6 20:49:45 10° W 20:53:39 20° NW 20:57:35 10° N visible
26 May 12.3 03:57:06 10° N 04:01:05 20° NE 04:05:01 10° E visible
26 May 12.2 20:18:03 10° WSW 20:22:36 27° NW 20:27:11 10° N visible
27 May 12.6 03:26:56 10° NNE 03:29:59 15° NE 03:33:00 10° E visible
27 May 9.5 05:08:30 10° NNW 05:13:55 73° WSW 05:19:17 10° SSE visible
28 May 12.8 02:57:34 10° NNE 02:58:49 11° NE 03:00:05 10° ENE visible
28 May 9.7 04:37:36 10° NNW 04:43:03 80° ENE 04:48:28 10° SSE visible
29 May 10.3 04:06:49 10° NNW 04:12:09 56° ENE 04:17:27 10° SE visible
30 May 10.9 03:36:08 10° N 03:41:13 40° ENE 03:46:16 10° SE visible
31 May 11.5 03:05:32 10° N 03:10:14 29° NE 03:14:53 10° ESE visible
31 May 10.2 04:48:46 10° NW 04:53:34 33° WSW 04:58:20 10° S visible
01 Jun 11.9 02:35:05 10° N 02:39:12 21° NE 02:43:15 10° ESE visible
01 Jun 9.8 04:17:36 10° NW 04:22:48 47° WSW 04:27:57 10° S visible
02 Jun 12.2 02:04:53 10° NNE 02:08:06 16° NE 02:11:18 10° E visible
02 Jun 9.5 03:46:35 10° NNW 03:51:59 69° WSW 03:57:20 10° SSE visible
